Weather reports worldwide

Advertisment
Capo Caccia, Italy (16522): temperature & dewpoint: 19.03.2019 07:00:00 - 25.03.2019 07:00:00 (CET)Capo Caccia, Italy (16522): wind speed: 19.03.2019 07:00:00 - 25.03.2019 07:00:00 (CET)Capo Caccia, Italy (16522): wind direction: 19.03.2019 07:00:00 - 25.03.2019 07:00:00 (CET)Capo Caccia, Italy (16522): reduced air pressure: 19.03.2019 07:00:00 - 25.03.2019 07:00:00 (CET)Capo Caccia, Italy (16522): visibility: 19.03.2019 07:00:00 - 25.03.2019 07:00:00 (CET)Capo Caccia, Italy (16522): sunshine duration: 19.03.2019 07:00:00 - 25.03.2019 07:00:00 (CET)
Date & Time tt [°C] td [°C] ff [km/h] ff [kn] dd ppp [hPa] vv [km] sd [min]
25.03.2019 07:00:00 11,8 10,2 15 8 S 1019,0 4,0 -
25.03.2019 06:00:00 12,6 11,0 15 8 S 1019,2 10 -
25.03.2019 05:00:00 12,8 11,2 13 7 S 1019,4 12 -
25.03.2019 04:00:00 12,8 11,2 5 3 N 1019,9 20 -
25.03.2019 03:00:00 13,0 11,4 5 3 NNE 1020,6 20 -
25.03.2019 02:00:00 12,8 11,4 9 5 S 1021,3 20 -
25.03.2019 01:00:00 12,8 11,9 8 4 S 1021,5 20 -
25.03.2019 00:00:00 13,0 12,2 4 2 SW 1021,8 20 -
24.03.2019 23:00:00 13,0 12,2 0 0 N 1022,3 20 -
24.03.2019 22:00:00 13,4 12,6 4 2 WSW 1022,3 20 -
24.03.2019 21:00:00 13,8 13,0 2 1 W 1022,2 20 -
24.03.2019 20:00:00 14,0 13,2 5 3 NW 1022,2 20 -
24.03.2019 19:00:00 14,0 12,6 11 6 W 1021,8 20 24
24.03.2019 18:00:00 15,0 11,6 9 5 W 1022,2 20 60
24.03.2019 17:00:00 16,0 8,3 4 2 ENE 1022,1 20 60
24.03.2019 16:00:00 16,2 13,5 5 3 SSW 1022,2 20 60
24.03.2019 15:00:00 16,0 12,6 5 3 SSW 1022,6 20 60
24.03.2019 14:00:00 15,8 13,7 8 4 SSW 1023,1 20 60
24.03.2019 13:00:00 15,0 12,5 8 4 SSW 1024,2 10 60
24.03.2019 12:00:00 14,0 12,0 8 4 SSW 1024,3 12 60
24.03.2019 11:00:00 13,8 11,9 9 5 S 1024,3 7 60
24.03.2019 10:00:00 13,2 11,4 8 4 S 1024,4 0,8 18
24.03.2019 09:00:00 12,2 10,4 8 4 S 1023,8 0,8 0
24.03.2019 08:00:00 12,0 10,4 8 4 S 1023,6 0,2 0
24.03.2019 07:00:00 12,0 10,4 8 4 S 1023,5 1,0 0
24.03.2019 06:00:00 12,4 10,8 8 4 S 1023,4 10 -
24.03.2019 05:00:00 13,4 11,8 13 7 SSE 1022,9 10 -
24.03.2019 04:00:00 13,4 11,8 11 6 SSE 1023,2 20 -
24.03.2019 03:00:00 13,8 12,0 9 5 S 1023,2 20 -
24.03.2019 02:00:00 13,8 12,2 11 6 SSE 1023,3 20 -
24.03.2019 01:00:00 13,8 12,2 13 7 SSE 1023,4 20 -
24.03.2019 00:00:00 13,8 13,0 13 7 SE 1023,4 20 -
23.03.2019 23:00:00 14,6 8,1 8 4 ESE 1023,1 20 -
23.03.2019 22:00:00 14,0 7,5 4 2 ENE 1023,1 20 -
23.03.2019 21:00:00 14,2 7,7 11 6 NE 1022,4 20 -
23.03.2019 20:00:00 14,8 10,4 15 8 NNE 1022,2 20 -
23.03.2019 19:00:00 16,0 9,4 11 6 NNE 1022,1 20 24
23.03.2019 18:00:00 16,4 9,8 11 6 NNW 1022,1 20 36
23.03.2019 17:00:00 17,0 13,5 8 4 N 1022,0 20 60
23.03.2019 16:00:00 17,0 9,9 8 4 NNW 1022,0 20 48
23.03.2019 15:00:00 16,8 10,2 9 5 NNW 1022,2 20 60
23.03.2019 14:00:00 16,6 9,8 9 5 NW 1022,8 20 60
23.03.2019 13:00:00 16,8 12,6 9 5 NW 1023,2 20 60
23.03.2019 12:00:00 17,2 10,6 8 4 SW 1023,2 20 60
23.03.2019 11:00:00 18,8 9,0 8 4 ESE 1023,0 20 60
23.03.2019 10:00:00 18,8 8,7 13 7 E 1023,0 20 60
23.03.2019 09:00:00 16,8 8,2 16 9 NE 1023,2 20 60
23.03.2019 08:00:00 15,0 7,3 21 11 NE 1023,4 20 18
23.03.2019 07:00:00 12,6 6,9 18 10 NE 1023,6 20 0
23.03.2019 06:00:00 13,0 7,5 16 9 NNE 1023,5 20 -
23.03.2019 05:00:00 13,4 7,6 21 11 NNE 1023,5 20 -
23.03.2019 04:00:00 13,4 6,7 24 13 NE 1023,5 20 -
23.03.2019 03:00:00 13,2 6,3 28 15 NNE 1023,5 20 -
23.03.2019 02:00:00 13,2 7,4 15 8 NE 1023,9 20 -
23.03.2019 01:00:00 13,2 7,9 18 10 NE 1024,2 20 -
23.03.2019 00:00:00 13,0 8,7 26 14 NE 1024,6 20 -
22.03.2019 23:00:00 13,0 11,1 21 11 NE 1024,6 20 -
22.03.2019 22:00:00 13,4 10,6 21 11 NE 1024,5 20 -
22.03.2019 21:00:00 13,8 10,4 18 10 NNE 1025,0 20 -
22.03.2019 20:00:00 14,0 10,4 31 17 NE 1024,5 20 -
22.03.2019 19:00:00 15,0 11,2 29 16 NE 1024,4 20 0
22.03.2019 18:00:00 17,0 11,9 22 12 NE 1024,2 20 60
22.03.2019 17:00:00 18,8 11,4 24 13 NNE 1024,1 20 60
22.03.2019 16:00:00 20,8 9,7 18 10 E 1023,9 20 60
22.03.2019 15:00:00 20,2 9,5 21 11 ENE 1024,8 20 60
22.03.2019 14:00:00 20,0 10,7 18 10 E 1025,0 20 60
22.03.2019 13:00:00 19,8 11,3 24 13 E 1025,4 20 60
22.03.2019 12:00:00 17,4 10,8 22 12 ENE 1025,6 20 60
22.03.2019 11:00:00 16,2 11,4 26 14 ENE 1025,5 20 30
22.03.2019 10:00:00 14,8 10,4 24 13 ENE 1024,4 20 60
22.03.2019 09:00:00 13,0 10,5 42 23 ENE 1024,1 20 30
22.03.2019 08:00:00 12,8 10,0 37 20 ENE 1023,9 10 60
22.03.2019 07:00:00 12,4 10,3 42 23 NE 1022,9 10 0
22.03.2019 06:00:00 12,6 9,8 39 21 NE 1022,6 10 -
22.03.2019 05:00:00 12,6 9,2 41 22 NE 1022,2 15 -
22.03.2019 04:00:00 12,6 9,3 50 27 NE 1022,2 10 -
22.03.2019 03:00:00 13,0 9,3 54 29 NE 1022,5 10 -
22.03.2019 02:00:00 12,4 8,7 42 23 NE 1023,3 10 -
22.03.2019 01:00:00 11,6 7,9 16 9 NE 1024,4 15 -
22.03.2019 00:00:00 11,6 7,9 0 0 N 1024,2 15 -
21.03.2019 23:00:00 12,0 8,3 13 7 ENE 1024,1 15 -
21.03.2019 22:00:00 12,2 9,2 16 9 ENE 1023,9 15 -
21.03.2019 21:00:00 12,4 9,6 11 6 NNE 1023,5 15 -
21.03.2019 20:00:00 13,0 8,7 15 8 NE 1023,2 15 -
21.03.2019 19:00:00 13,2 8,9 15 8 NE 1022,5 20 0
21.03.2019 18:00:00 14,8 10,0 35 19 NE 1021,9 20 0
21.03.2019 17:00:00 14,8 8,5 39 21 NNE 1021,9 20 12
21.03.2019 16:00:00 15,8 9,0 44 24 NE 1021,8 20 30
21.03.2019 15:00:00 15,8 9,0 39 21 NE 1021,6 20 48
21.03.2019 14:00:00 16,8 8,7 34 18 NE 1023,0 20 60
21.03.2019 13:00:00 17,0 8,7 31 17 ENE 1023,0 20 60
21.03.2019 12:00:00 16,8 8,5 21 11 ENE 1022,9 20 60
21.03.2019 11:00:00 15,0 7,3 34 18 ENE 1022,9 20 30
21.03.2019 10:00:00 13,0 7,7 37 20 NE 1023,0 20 48
21.03.2019 09:00:00 11,0 6,4 35 19 NE 1022,6 20 60
21.03.2019 08:00:00 10,6 6,2 57 31 NE 1021,8 20 12
21.03.2019 07:00:00 10,6 6,6 57 31 NE 1021,1 20 12
21.03.2019 06:00:00 10,8 6,5 42 23 NE 1021,6 20 -
21.03.2019 05:00:00 10,8 6,5 48 26 NNE 1021,6 20 -
21.03.2019 04:00:00 11,0 6,7 42 23 NNE 1021,9 20 -
21.03.2019 03:00:00 11,4 5,7 37 20 NNE 1022,6 20 -
21.03.2019 02:00:00 11,2 7,1 48 26 NNE 1022,6 20 -
21.03.2019 01:00:00 11,0 8,4 50 27 NNE 1022,8 20 -
21.03.2019 00:00:00 11,0 8,0 42 23 NE 1023,3 20 -
20.03.2019 23:00:00 10,4 6,5 42 23 NNE 1023,4 20 -
20.03.2019 22:00:00 10,4 6,4 44 24 NNE 1023,5 20 -
20.03.2019 21:00:00 10,4 7,1 35 19 NNE 1023,5 20 -
20.03.2019 20:00:00 11,6 7,7 37 20 NE 1023,1 20 -
20.03.2019 19:00:00 11,8 7,5 34 18 NE 1022,5 20 12
20.03.2019 18:00:00 12,8 8,7 39 21 NE 1021,9 20 60
20.03.2019 17:00:00 13,4 8,0 42 23 NE 1021,8 20 60
20.03.2019 16:00:00 13,2 6,5 44 24 NNE 1021,9 20 24
20.03.2019 15:00:00 14,2 7,7 37 20 NNE 1022,3 20 0
20.03.2019 14:00:00 12,8 7,5 37 20 NE 1022,5 20 12
20.03.2019 13:00:00 13,0 8,3 35 19 NE 1022,7 20 24
20.03.2019 12:00:00 13,4 7,0 35 19 NE 1022,4 20 60
20.03.2019 11:00:00 13,8 7,6 39 21 NE 1022,4 20 60
20.03.2019 10:00:00 12,2 6,9 31 17 NE 1022,5 20 60
20.03.2019 09:00:00 10,8 6,2 37 20 ENE 1022,6 20 60
20.03.2019 08:00:00 9,0 5,4 24 13 NE 1022,0 20 18
20.03.2019 07:00:00 8,0 5,1 21 11 NE 1021,9 20 0
20.03.2019 06:00:00 8,4 5,5 22 12 ENE 1021,8 20 -
20.03.2019 05:00:00 8,8 6,2 18 10 NE 1021,0 20 -
20.03.2019 04:00:00 9,0 6,6 22 12 ENE 1021,2 20 -
20.03.2019 03:00:00 9,0 6,8 16 9 ENE 1021,8 20 -
20.03.2019 02:00:00 8,8 6,8 22 12 NE 1021,9 20 -
20.03.2019 01:00:00 8,8 7,9 16 9 NE 1021,9 20 -
20.03.2019 00:00:00 8,8 6,8 16 9 NNE 1021,9 20 -
19.03.2019 23:00:00 9,0 7,3 18 10 NE 1021,8 20 -
19.03.2019 22:00:00 10,0 7,6 16 9 NE 1021,5 20 -
19.03.2019 21:00:00 10,4 7,6 21 11 NNE 1020,6 20 -
19.03.2019 20:00:00 11,0 7,7 29 16 NNE 1020,1 20 -
19.03.2019 19:00:00 11,8 8,1 28 15 NNE 1019,4 20 12
19.03.2019 18:00:00 12,4 6,0 22 12 N 1018,5 20 60
19.03.2019 17:00:00 13,4 7,0 24 13 NNE 1017,9 20 54
19.03.2019 16:00:00 14,0 8,6 16 9 NNW 1017,7 20 60
19.03.2019 15:00:00 14,2 9,8 13 7 NW 1017,8 20 60
19.03.2019 14:00:00 15,0 11,0 16 9 WNW 1018,1 20 60
19.03.2019 13:00:00 14,8 10,2 9 5 SSW 1018,1 20 48
19.03.2019 12:00:00 13,8 9,3 9 5 W 1017,9 20 0
19.03.2019 11:00:00 13,8 10,8 5 3 ENE 1017,2 10 30
19.03.2019 10:00:00 13,8 11,0 4 2 W 1017,2 12 60
19.03.2019 09:00:00 12,4 9,2 4 2 NW 1017,3 20 60
19.03.2019 08:00:00 11,4 9,5 5 3 NNW 1016,4 20 6
19.03.2019 07:00:00 10,4 8,5 8 4 NNW 1016,3 20 0

tt = temperature
td = dewpoint
ff = wind speed
dd = wind direction
ppp = reduced air pressure
vv = visibility
sd = sunshine duration

Next stations